Other Surface Observations
Issued by NWS Jacksonville, FL

Home | Current Version | Previous Version | Text Only | Print | Product List | Glossary On
Versions: 1 2 3 4 5 6 7 8 9 10 11 12 13 14 15 16 17 18 19 20 21 22 23 24 25 26 27 28 29 30 31 32 33 34 35 36 37 38 39 40 41 42 43 44 45 46 47 48 49 50
000
SXUS52 KJAX 232110
OSOJAX
OTHER SURFACE OBSERVATIONS
NATIONAL WEATHER SERVICE JACKSONVILLE FL
500 PM EDT TUE SEP 23 2014

FLZ020>025-030>033-035>038-040-232200-
...FLORIDA...

CITY           SKY/WX    TMP DP  RH WIND       PRES   REMARKS
CECIL FIELD    PTSUNNY   77  70  78 NE12      30.03F
HERLONG FIELD  NOT AVBL
FERNANDINA BCH NOT AVBL
LAKE CITY      MOCLDY    79  68  69 N10       30.03F
JUNIPER SPGS   NOT AVBL
BUNNELL        MOCLDY    79  72  78 NE10      30.00S
KEYSTONE HGTS    N/A     79  72  78 NE10      30.02F
$$

GAZ132>136-149>154-162>166-232200-
...GEORGIA...

CITY           SKY/WX    TMP DP  RH WIND       PRES   REMARKS
JESUP          FAIR      82  68  61 E10       30.07S
HOMERVILLE     FAIR      84  64  51 NE6G16    30.05F
SWAINSBORO     FAIR      77  68  73 NE12G18   30.14F
CORDELE        NOT AVBL
$$

PLEASE NOTE:  THESE OBSERVATIONS ARE NOT QUALITY CONTROLLED AND MAY
NOT BE AVAILABLE AT ALL TIMES.
$$



USA.gov is the U.S. government's official web portal to all federal, state and local government web resources and services.